カタログに戻る

KUIPER-00613

運用中通信LEO
NORAD 69293·PAYLOAD·🇺🇸 United States

打ち上げ May 29, 2026 から Vandenberg Space Force Base

Loading…

次のパス (今後24時間)

TLE

最新Source: CelesTrak SupGP

元期: Sep 14, 2026, 23:35 UTC

1 69293C 26118AC  26257.98307870  .00001620  00000+0  21215-3 0  2570
2 69293  51.9016   6.0894 0000461  97.1369 165.8090 14.79921503    17

AllMySatでKUIPER-00613をリアルタイム追跡

Download on the App Store